Location: Newark
(36.0797°N, 3.9744°E)
Time: 19:21:04
(UTC+00:00)

Vanguard 2 - Pass Details

Date: 12 December 2019
Orbit: 553 x 2938 km, 32.9° (Epoch: 28 January)

Event Time Altitude Azimuth Distance (km) Brightness Sun altitude
Exits shadow 04:26:49 36° 268° (W) 3,988 10.5 -27.2°
Maximum altitude 04:36:22 75° 193° (SSW) 2,929 10.3 -25.3°
Drops below altitude 10° 04:51:34 10° 112° (ESE) 4,880 12.7 -22.3°
Sets 04:54:50 0° 110° (ESE) 5,628 13.5 -21.6°
